Location: Ithaca
(42.4410°N, 76.4970°W)
Time: 01:07:47
(UTC-05:00)

Hubble Space Telescope - Visible Passes

Search period start: 22 February 2017 00:00
Search period end: 04 March 2017 00:00
Orbit: 538 x 542 km, 28.5° (Epoch: 21 February)

Date Brightness Start Highest point End Pass type
(mag) Time Alt. Az. Time Alt. Az. Time Alt. Az.
27 Feb 3.3 19:01:34 10° S 19:01:38 10° S 19:01:42 10° S visible
28 Feb 3.2 18:50:29 10° S 18:51:30 11° S 18:52:33 10° SSE visible
01 Mar 3.2 18:40:04 10° SSW 18:41:23 11° S 18:42:43 10° SSE visible
02 Mar 3.2 18:29:49 10° SSW 18:31:16 12° S 18:32:42 10° SSE visible
